SCP
-0 -0 -0 -0 -0 -0 -0 -0 0 0 0 0 0 0 0 -0 -0 0 0 0 0 -0 0 0 0 -0 0 0 0 0 0 -0 0 0 -0 -0 -0 -0 -0 -0 -0 -0 -0
-0 -0 -0 -1 -0 -0 -0 -0 -0 0 0 0 0 0 0 0 0 0 0 0 0 0 0 0 0 0 0 0 0 0 0 0 0 0 0 -0 -0 -0 -0 -0 -0 -0 -0
-0 -0 -0 -0 -1 -0 -0 -0 -0 -0 -0 -0 -0 0 0 0 0 0 0 0 0 0 0 0 0 0 0 0 0 0 0 0 0 0 -0 0 0 0 0 0 -0 -0 -0
-0 -0 -0 -0 -0 -0 -0 -0 -0 -0 -0 -0 -0 -0 0 0 0 0 0 0 0 0 0 0 0 0 0 0 0 0 0 0 0 0 0 0 0 0 0 0 0 0 0
-0 -0 -0 -0 -0 -0 -0 -0 -0 -0 -0 -0 -0 -0 -0 -0 0 0 0 0 0 0 0 0 0 0 0 0 0 0 0 0 0 0 0 0 0 0 0 0 0 0 0
-0 -0 -0 -0 -0 -0 -0 -0 -0 -0 -0 -0 -0 -0 -0 -0 0 0 0 0 0 0 0 0 0 0 0 0 0 0 0 0 0 0 0 0 0 0 0 0 0 0 0
-0 -0 -0 -0 -0 -0 -0 -0 0 0 0 -0 -0 -0 -0 0 0 0 0 0 0 0 0 0 0 0 0 0 0 0 0 0 0 0 0 0 0 0 0 0 0 0 0
0 0 -0 -0 -0 -0 -0 0 0 0 0 0 0 0 0 0 0 0 0 0 0 0 0 0 0 0 0 0 0 0 0 0 0 0 0 0 0 0 0 0 0 0 0
0 0 0 0 0 0 0 0 0 0 0 0 0 0 0 0 0 0 0 0 0 0 0 0 0 0 0 0 0 0 0 0 0 0 0 0 0 0 0 0 0 0 0
0 0 0 0 0 0 0 0 0 0 0 0 0 0 0 0 0 0 0 0 0 0 0 0 0 0 0 0 0 0 0 0 0 0 0 0 0 0 0 0 0 0 0
0 0 0 0 0 0 0 0 0 0 0 0 0 0 0 0 0 0 0 0 0 0 0 0 0 0 0 0 0 0 0 0 0 0 0 0 0 0 0 0 0 0 0
0 0 0 0 0 0 0 0 0 0 0 0 0 0 0 0 0 0 0 0 0 0 0 0 0 0 0 0 0 0 0 0 0 0 0 0 0 0 0 0 0 0 0
0 0 0 0 0 0 0 0 0 0 0 0 0 0 0 0 0 0 0 0 0 0 0 0 0 0 0 0 0 0 0 0 0 0 0 0 0 0 0 0 0 0 0
0 0 0 0 0 0 0 0 0 0 0 0 0 0 0 0 0 0 0 0 0 0 0 0 0 0 0 0 0 0 0 0 0 0 0 0 0 0 0 0 0 0 0
0 0 0 0 0 0 0 0 0 0 0 0 0 0 0 0 0 0 0 0 0 0 0 0 0 0 0 0 0 0 0 0 0 0 0 0 0 0 0 0 0 0 0
0 0 0 0 0 0 0 0 0 0 0 0 0 0 0 0 0 0 0 0 0 0 0 0 0 0 0 0 0 0 0 0 0 0 0 0 0 0 0 0 0 0 0
0 0 0 0 0 0 0 0 0 0 0 0 0 0 0 0 0 0 0 0 0 0 0 0 0 0 0 0 0 0 0 0 0 0 0 0 0 0 0 0 0 0 0
0 0 0 0 0 0 0 0 0 0 0 0 0 0 0 0 0 0 0 0 0 0 0 0 0 0 0 0 0 0 0 0 0 0 0 0 0 0 0 0 0 0 0
0 0 0 0 0 0 0 0 0 0 0 0 0 0 0 0 0 0 0 0 0 0 0 0 0 0 0 0 0 0 0 0 0 0 0 0 0 0 0 0 0 0 0
0 0 0 0 0 0 0 0 0 0 0 0 0 0 0 0 0 0 0 0 0 0 0 0 0 0 0 0 0 0 0 0 0 0 0 0 0 0 0 0 0 0 0
0 0 0 0 0 0 0 0 0 0 0 0 0 0 0 0 0 0 0 0 0 0 0 0 0 0 0 0 0 0 0 0 0 0 0 0 0 0 0 0 0 0 0
0 0 0 0 0 0 0 0 0 0 0 0 0 0 0 0 0 0 0 0 0 0 0 0 0 0 0 0 0 0 0 0 0 0 0 0 0 0 0 0 0 0 0
0 0 0 0 0 0 0 0 0 0 0 0 0 0 0 0 0 0 0 0 0 0 0 0 0 0 0 0 0 0 0 0 0 0 0 0 0 0 0 0 0 0 0
0 0 0 0 0 0 0 0 0 0 0 0 0 0 0 0 0 0 0 0 0 0 0 0 0 0 0 0 0 0 0 0 0 0 0 0 0 0 0 0 0 0 0
0 0 0 0 0 0 0 0 0 0 0 0 0 0 0 0 0 0 0 0 0 0 0 0 0 0 0 0 0 0 0 0 0 0 0 0 0 0 0 0 0 0 0
0 0 0 0 0 0 0 0 0 0 0 0 0 0 0 0 0 0 0 0 0 0 0 0 0 0 0 0 0 0 0 0 0 0 0 0 0 0 0 0 0 0 0
Wind_Speed_500mb
22 21 38 39 39 38 37 35 32 27 23 19 17 14 11 9 7 6 9 10 8 6 7 9 11 9 8 5 3 2 5 8 11 12 13 11 13 14 15 16 19 17 17
24 24 39 38 39 38 38 36 32 27 25 23 19 17 15 12 11 10 9 9 10 11 10 9 10 9 5 3 3 2 3 6 9 11 13 8 4 9 11 11 12 10 11
24 27 40 39 38 36 36 35 31 30 28 24 20 19 20 18 14 13 13 13 13 12 7 6 9 6 4 3 2 2 4 7 10 17 16 11 14 3 4 5 5 5 4
17 25 39 41 39 38 36 35 33 31 30 29 29 24 18 20 20 19 18 15 15 14 11 10 10 9 7 7 5 3 3 5 11 20 17 4 12 16 5 4 4 2 1
23 24 35 40 41 41 38 36 34 33 31 29 28 25 23 22 24 25 22 21 21 20 14 15 15 14 12 11 10 9 7 7 10 13 14 10 7 12 11 4 2 3 2
25 33 33 40 42 42 42 39 37 35 34 31 28 28 27 31 33 31 26 25 23 21 18 18 18 15 14 12 11 10 11 11 14 14 9 17 17 5 6 2 1 2 3
23 32 33 37 45 45 43 42 41 39 38 35 32 27 29 31 25 25 22 23 24 21 21 20 16 14 9 5 4 5 8 13 16 15 24 14 26 22 10 5 6 6 7
24 30 34 35 42 47 45 43 43 41 40 37 35 31 33 31 26 27 26 26 24 23 21 17 14 9 6 4 2 3 4 9 13 14 23 22 21 23 17 13 13 13 12
23 30 36 36 42 47 49 47 44 44 43 42 43 40 41 33 25 24 26 26 24 22 21 16 13 10 7 5 4 3 5 9 9 10 21 16 16 17 16 15 16 17 18
24 33 34 39 40 47 50 51 51 48 47 47 47 49 45 34 31 27 27 26 25 24 21 17 15 12 10 8 8 8 10 10 10 15 16 15 16 17 16 17 17 18 19
30 37 36 40 42 46 50 52 53 54 53 52 54 54 50 43 37 32 30 30 29 28 25 23 19 16 14 13 12 12 13 12 13 17 12 14 16 17 16 16 18 19 19
38 40 45 43 47 46 49 53 54 55 56 58 59 58 55 52 42 38 36 35 33 31 29 27 23 21 20 17 16 16 14 15 15 17 14 16 16 18 18 16 17 18 17
38 40 48 48 49 52 51 51 53 58 60 61 62 63 62 57 48 49 43 40 40 37 34 32 27 27 24 21 19 18 17 18 18 18 16 18 19 20 19 19 21 20 18
44 51 49 46 54 55 55 58 58 58 62 66 65 65 65 63 58 55 50 45 43 42 41 38 35 33 27 25 22 20 20 19 17 17 16 18 19 20 20 20 22 19 17
43 48 56 55 51 57 59 59 65 66 62 63 68 67 69 63 61 61 54 50 48 47 47 45 40 36 33 29 26 24 22 21 20 20 17 18 19 20 21 22 20 19 13
44 39 49 60 56 53 59 61 65 66 63 59 61 69 71 64 64 62 57 57 54 52 52 49 44 41 38 36 33 31 28 26 24 23 21 20 20 20 20 21 18 10 21
43 46 40 52 57 55 53 58 62 65 61 63 60 67 69 67 66 62 60 61 59 57 56 53 52 50 47 43 41 39 35 32 30 27 25 24 23 23 24 23 18 21 29
34 36 37 38 50 52 49 53 59 60 61 60 62 63 66 65 66 65 66 65 63 63 60 58 58 56 52 49 48 44 40 37 35 32 29 27 27 26 26 27 25 28 31
11 9 15 32 37 45 48 47 51 55 58 59 61 62 62 65 64 66 69 68 67 69 66 63 61 57 57 54 52 49 46 42 39 38 34 31 32 32 29 28 28 37 43
23 22 22 8 19 30 35 42 45 47 49 53 57 60 62 67 68 66 71 72 72 73 70 68 64 62 59 55 53 51 50 49 47 43 39 38 36 38 33 34 38 42 39
11 9 16 20 14 21 28 29 37 46 45 48 53 53 57 63 68 66 69 74 77 79 74 68 66 65 64 61 58 56 56 55 51 50 45 45 41 40 39 40 42 44 44
47 38 24 15 10 4 14 14 17 17 23 31 34 44 52 55 62 66 64 72 78 81 79 76 74 72 71 71 68 59 44 55 57 56 55 53 49 46 47 46 47 46 46
51 52 45 34 22 9 8 14 16 23 26 25 30 37 42 48 58 63 64 64 73 80 81 81 80 80 82 82 80 64 25 33 37 53 60 59 59 55 51 51 53 50 48
52 48 47 43 37 30 20 9 2 3 7 10 9 24 31 33 40 52 60 64 65 75 81 81 82 84 84 86 83 81 80 54 35 30 48 60 65 64 58 57 58 54 52
47 45 43 40 38 36 29 22 13 11 7 9 17 17 21 31 36 34 40 50 56 64 75 80 84 88 91 92 94 92 87 77 62 57 49 52 57 60 60 62 58 57 57
35 35 35 36 38 36 33 31 30 23 17 13 7 13 20 24 27 31 31 38 49 54 63 70 77 86 90 93 97 96 99 94 90 71 60 59 58 59 61 63 63 63 63
Wind_Direction_500mb
202 183 186 186 186 181 177 178 183 191 197 202 205 206 207 191 183 179 155 182 205 255 296 317 323 331 7 11 3 57 75 72 63 63 65 55 66 76 71 54 59 80 79
211 192 189 192 192 193 189 191 192 194 199 205 211 218 221 218 200 200 210 222 243 265 285 308 316 326 359 16 36 59 93 88 86 77 66 30 35 69 72 64 62 69 78
213 196 193 196 199 198 197 200 200 199 203 209 218 207 221 220 216 213 221 236 247 265 279 312 330 334 325 338 353 81 107 112 110 99 68 7 341 360 31 32 36 62 95
221 204 199 199 202 203 203 202 203 207 209 207 206 221 215 222 226 223 227 235 253 267 278 288 302 296 298 289 274 250 190 149 136 134 115 8 314 324 312 338 347 2 9
209 213 208 207 206 207 208 207 207 211 213 214 221 234 242 241 239 238 237 242 255 266 272 280 284 288 284 275 267 251 226 192 170 173 158 159 266 291 310 289 7 344 338
212 212 213 210 213 213 212 212 214 215 217 221 226 236 246 251 248 243 244 250 254 264 277 279 283 286 284 276 263 247 228 211 199 191 155 192 212 237 285 117 283 303 289
220 212 220 213 216 217 218 216 217 220 222 224 229 236 247 260 237 226 224 230 246 259 266 274 280 281 273 255 245 234 220 216 218 209 195 198 214 228 244 252 282 285 301
231 224 226 224 220 221 221 221 221 221 220 224 228 228 235 249 227 219 225 235 244 249 251 256 260 247 236 224 208 203 206 213 226 219 230 234 235 247 254 277 276 274 271
232 237 236 230 225 223 225 225 224 222 222 223 225 230 243 252 244 233 232 240 245 244 245 242 224 222 234 243 243 221 215 224 238 224 237 247 255 262 262 267 271 270 269
236 249 238 239 229 226 226 227 227 224 223 225 227 232 239 246 253 239 237 240 241 243 243 232 227 227 230 237 239 240 241 249 245 242 260 271 269 265 266 272 271 270 271
249 245 248 237 235 231 231 231 229 228 229 228 227 233 239 244 254 245 238 236 234 234 229 223 224 227 234 242 245 247 248 250 251 257 264 267 271 274 271 269 274 276 278
256 245 247 242 239 235 232 233 231 229 227 227 228 233 239 245 255 247 240 240 238 234 226 224 222 225 228 232 237 243 250 253 256 262 265 267 268 270 272 274 273 274 280
273 261 250 244 239 236 234 233 232 229 228 228 230 235 239 245 249 249 242 236 237 233 230 229 225 229 231 232 232 238 239 244 247 255 259 263 266 267 268 269 272 278 282
246 261 265 251 240 237 235 231 238 235 230 228 229 235 242 241 243 243 242 240 238 234 230 230 227 231 231 235 237 238 241 247 255 259 259 263 265 267 265 264 267 274 278
264 244 257 262 249 240 237 234 235 241 241 240 236 237 244 245 242 243 242 241 240 237 233 233 229 231 234 237 240 243 247 253 259 266 264 263 261 259 257 255 258 259 260
271 267 244 252 257 248 242 239 239 244 248 245 241 239 244 248 247 242 239 240 240 241 238 238 234 233 235 236 239 243 247 251 255 260 266 265 265 263 258 255 251 229 195
277 276 260 243 253 252 246 244 240 246 247 251 245 244 247 247 245 243 241 240 241 241 238 237 234 233 235 236 238 240 242 246 249 253 259 264 264 260 256 249 228 194 206
264 271 279 257 246 252 248 244 245 241 246 247 252 249 251 249 246 246 242 241 243 244 244 240 236 235 236 237 238 239 241 244 247 251 254 257 258 255 254 251 241 206 224
220 216 281 280 260 249 252 246 246 246 242 245 244 253 254 254 250 248 246 243 243 245 245 244 241 238 240 238 239 239 241 243 246 249 252 255 258 260 253 245 231 224 239
240 215 214 208 262 266 252 247 241 247 249 245 248 248 252 255 255 249 247 246 243 243 244 244 243 240 240 240 241 241 243 245 245 248 249 251 251 254 251 244 235 236 241
96 162 195 207 222 249 261 249 239 238 247 250 248 249 248 255 259 255 249 246 246 246 247 246 243 238 236 235 236 241 242 244 246 248 249 251 251 252 252 245 241 236 236
66 71 87 120 165 184 206 250 239 242 245 254 262 254 250 252 257 261 255 250 248 248 246 243 241 238 235 236 234 237 243 246 246 246 248 250 252 250 249 246 244 239 238
58 53 56 61 71 86 172 225 237 229 240 239 251 258 262 253 253 260 264 257 252 252 251 249 245 242 239 236 237 230 213 231 241 243 243 247 250 249 248 246 244 242 240
64 58 51 53 53 51 51 53 14 245 245 247 260 288 290 276 266 263 265 264 259 257 256 254 251 248 245 240 236 234 233 240 224 224 238 241 244 247 247 246 245 244 240
55 54 55 50 49 48 47 45 40 27 326 286 236 254 271 284 288 281 272 266 265 259 259 258 257 252 249 247 244 243 235 235 238 241 241 237 237 242 243 245 245 243 240
50 52 48 46 50 49 47 47 44 39 21 23 13 284 292 294 299 299 289 273 265 264 262 263 261 259 257 254 251 246 245 237 234 233 238 244 247 247 248 248 247 246 243
Wind_Speed_850mb
22 21 38 39 39 38 37 35 32 27 23 19 17 14 11 9 7 6 9 10 8 6 7 9 11 9 8 5 3 2 5 8 11 12 13 11 13 14 15 16 19 17 17
24 24 39 38 39 38 38 36 32 27 25 23 19 17 15 12 11 10 9 9 10 11 10 9 10 9 5 3 3 2 3 6 9 11 13 8 4 9 11 11 12 10 11
24 27 40 39 38 36 36 35 31 30 28 24 20 19 20 18 14 13 13 13 13 12 7 6 9 6 4 3 2 2 4 7 10 17 16 11 14 3 4 5 5 5 4
17 25 39 41 39 38 36 35 33 31 30 29 29 24 18 20 20 19 18 15 15 14 11 10 10 9 7 7 5 3 3 5 11 20 17 4 12 16 5 4 4 2 1
23 24 35 40 41 41 38 36 34 33 31 29 28 25 23 22 24 25 22 21 21 20 14 15 15 14 12 11 10 9 7 7 10 13 14 10 7 12 11 4 2 3 2
25 33 33 40 42 42 42 39 37 35 34 31 28 28 27 31 33 31 26 25 23 21 18 18 18 15 14 12 11 10 11 11 14 14 9 17 17 5 6 2 1 2 3
23 32 33 37 45 45 43 42 41 39 38 35 32 27 29 31 25 25 22 23 24 21 21 20 16 14 9 5 4 5 8 13 16 15 24 14 26 22 10 5 6 6 7
24 30 34 35 42 47 45 43 43 41 40 37 35 31 33 31 26 27 26 26 24 23 21 17 14 9 6 4 2 3 4 9 13 14 23 22 21 23 17 13 13 13 12
23 30 36 36 42 47 49 47 44 44 43 42 43 40 41 33 25 24 26 26 24 22 21 16 13 10 7 5 4 3 5 9 9 10 21 16 16 17 16 15 16 17 18
24 33 34 39 40 47 50 51 51 48 47 47 47 49 45 34 31 27 27 26 25 24 21 17 15 12 10 8 8 8 10 10 10 15 16 15 16 17 16 17 17 18 19
30 37 36 40 42 46 50 52 53 54 53 52 54 54 50 43 37 32 30 30 29 28 25 23 19 16 14 13 12 12 13 12 13 17 12 14 16 17 16 16 18 19 19
38 40 45 43 47 46 49 53 54 55 56 58 59 58 55 52 42 38 36 35 33 31 29 27 23 21 20 17 16 16 14 15 15 17 14 16 16 18 18 16 17 18 17
38 40 48 48 49 52 51 51 53 58 60 61 62 63 62 57 48 49 43 40 40 37 34 32 27 27 24 21 19 18 17 18 18 18 16 18 19 20 19 19 21 20 18
44 51 49 46 54 55 55 58 58 58 62 66 65 65 65 63 58 55 50 45 43 42 41 38 35 33 27 25 22 20 20 19 17 17 16 18 19 20 20 20 22 19 17
43 48 56 55 51 57 59 59 65 66 62 63 68 67 69 63 61 61 54 50 48 47 47 45 40 36 33 29 26 24 22 21 20 20 17 18 19 20 21 22 20 19 13
44 39 49 60 56 53 59 61 65 66 63 59 61 69 71 64 64 62 57 57 54 52 52 49 44 41 38 36 33 31 28 26 24 23 21 20 20 20 20 21 18 10 21
43 46 40 52 57 55 53 58 62 65 61 63 60 67 69 67 66 62 60 61 59 57 56 53 52 50 47 43 41 39 35 32 30 27 25 24 23 23 24 23 18 21 29
34 36 37 38 50 52 49 53 59 60 61 60 62 63 66 65 66 65 66 65 63 63 60 58 58 56 52 49 48 44 40 37 35 32 29 27 27 26 26 27 25 28 31
11 9 15 32 37 45 48 47 51 55 58 59 61 62 62 65 64 66 69 68 67 69 66 63 61 57 57 54 52 49 46 42 39 38 34 31 32 32 29 28 28 37 43
23 22 22 8 19 30 35 42 45 47 49 53 57 60 62 67 68 66 71 72 72 73 70 68 64 62 59 55 53 51 50 49 47 43 39 38 36 38 33 34 38 42 39
11 9 16 20 14 21 28 29 37 46 45 48 53 53 57 63 68 66 69 74 77 79 74 68 66 65 64 61 58 56 56 55 51 50 45 45 41 40 39 40 42 44 44
47 38 24 15 10 4 14 14 17 17 23 31 34 44 52 55 62 66 64 72 78 81 79 76 74 72 71 71 68 59 44 55 57 56 55 53 49 46 47 46 47 46 46
51 52 45 34 22 9 8 14 16 23 26 25 30 37 42 48 58 63 64 64 73 80 81 81 80 80 82 82 80 64 25 33 37 53 60 59 59 55 51 51 53 50 48
52 48 47 43 37 30 20 9 2 3 7 10 9 24 31 33 40 52 60 64 65 75 81 81 82 84 84 86 83 81 80 54 35 30 48 60 65 64 58 57 58 54 52
47 45 43 40 38 36 29 22 13 11 7 9 17 17 21 31 36 34 40 50 56 64 75 80 84 88 91 92 94 92 87 77 62 57 49 52 57 60 60 62 58 57 57
35 35 35 36 38 36 33 31 30 23 17 13 7 13 20 24 27 31 31 38 49 54 63 70 77 86 90 93 97 96 99 94 90 71 60 59 58 59 61 63 63 63 63
Wind_Direction_850mb
202 183 186 186 186 181 177 178 183 191 197 202 205 206 207 191 183 179 155 182 205 255 296 317 323 331 7 11 3 57 75 72 63 63 65 55 66 76 71 54 59 80 79
211 192 189 192 192 193 189 191 192 194 199 205 211 218 221 218 200 200 210 222 243 265 285 308 316 326 359 16 36 59 93 88 86 77 66 30 35 69 72 64 62 69 78
213 196 193 196 199 198 197 200 200 199 203 209 218 207 221 220 216 213 221 236 247 265 279 312 330 334 325 338 353 81 107 112 110 99 68 7 341 360 31 32 36 62 95
221 204 199 199 202 203 203 202 203 207 209 207 206 221 215 222 226 223 227 235 253 267 278 288 302 296 298 289 274 250 190 149 136 134 115 8 314 324 312 338 347 2 9
209 213 208 207 206 207 208 207 207 211 213 214 221 234 242 241 239 238 237 242 255 266 272 280 284 288 284 275 267 251 226 192 170 173 158 159 266 291 310 289 7 344 338
212 212 213 210 213 213 212 212 214 215 217 221 226 236 246 251 248 243 244 250 254 264 277 279 283 286 284 276 263 247 228 211 199 191 155 192 212 237 285 117 283 303 289
220 212 220 213 216 217 218 216 217 220 222 224 229 236 247 260 237 226 224 230 246 259 266 274 280 281 273 255 245 234 220 216 218 209 195 198 214 228 244 252 282 285 301
231 224 226 224 220 221 221 221 221 221 220 224 228 228 235 249 227 219 225 235 244 249 251 256 260 247 236 224 208 203 206 213 226 219 230 234 235 247 254 277 276 274 271
232 237 236 230 225 223 225 225 224 222 222 223 225 230 243 252 244 233 232 240 245 244 245 242 224 222 234 243 243 221 215 224 238 224 237 247 255 262 262 267 271 270 269
236 249 238 239 229 226 226 227 227 224 223 225 227 232 239 246 253 239 237 240 241 243 243 232 227 227 230 237 239 240 241 249 245 242 260 271 269 265 266 272 271 270 271
249 245 248 237 235 231 231 231 229 228 229 228 227 233 239 244 254 245 238 236 234 234 229 223 224 227 234 242 245 247 248 250 251 257 264 267 271 274 271 269 274 276 278
256 245 247 242 239 235 232 233 231 229 227 227 228 233 239 245 255 247 240 240 238 234 226 224 222 225 228 232 237 243 250 253 256 262 265 267 268 270 272 274 273 274 280
273 261 250 244 239 236 234 233 232 229 228 228 230 235 239 245 249 249 242 236 237 233 230 229 225 229 231 232 232 238 239 244 247 255 259 263 266 267 268 269 272 278 282
246 261 265 251 240 237 235 231 238 235 230 228 229 235 242 241 243 243 242 240 238 234 230 230 227 231 231 235 237 238 241 247 255 259 259 263 265 267 265 264 267 274 278
264 244 257 262 249 240 237 234 235 241 241 240 236 237 244 245 242 243 242 241 240 237 233 233 229 231 234 237 240 243 247 253 259 266 264 263 261 259 257 255 258 259 260
271 267 244 252 257 248 242 239 239 244 248 245 241 239 244 248 247 242 239 240 240 241 238 238 234 233 235 236 239 243 247 251 255 260 266 265 265 263 258 255 251 229 195
277 276 260 243 253 252 246 244 240 246 247 251 245 244 247 247 245 243 241 240 241 241 238 237 234 233 235 236 238 240 242 246 249 253 259 264 264 260 256 249 228 194 206
264 271 279 257 246 252 248 244 245 241 246 247 252 249 251 249 246 246 242 241 243 244 244 240 236 235 236 237 238 239 241 244 247 251 254 257 258 255 254 251 241 206 224
220 216 281 280 260 249 252 246 246 246 242 245 244 253 254 254 250 248 246 243 243 245 245 244 241 238 240 238 239 239 241 243 246 249 252 255 258 260 253 245 231 224 239
240 215 214 208 262 266 252 247 241 247 249 245 248 248 252 255 255 249 247 246 243 243 244 244 243 240 240 240 241 241 243 245 245 248 249 251 251 254 251 244 235 236 241
96 162 195 207 222 249 261 249 239 238 247 250 248 249 248 255 259 255 249 246 246 246 247 246 243 238 236 235 236 241 242 244 246 248 249 251 251 252 252 245 241 236 236
66 71 87 120 165 184 206 250 239 242 245 254 262 254 250 252 257 261 255 250 248 248 246 243 241 238 235 236 234 237 243 246 246 246 248 250 252 250 249 246 244 239 238
58 53 56 61 71 86 172 225 237 229 240 239 251 258 262 253 253 260 264 257 252 252 251 249 245 242 239 236 237 230 213 231 241 243 243 247 250 249 248 246 244 242 240
64 58 51 53 53 51 51 53 14 245 245 247 260 288 290 276 266 263 265 264 259 257 256 254 251 248 245 240 236 234 233 240 224 224 238 241 244 247 247 246 245 244 240
55 54 55 50 49 48 47 45 40 27 326 286 236 254 271 284 288 281 272 266 265 259 259 258 257 252 249 247 244 243 235 235 238 241 241 237 237 242 243 245 245 243 240
50 52 48 46 50 49 47 47 44 39 21 23 13 284 292 294 299 299 289 273 265 264 262 263 261 259 257 254 251 246 245 237 234 233 238 244 247 247 248 248 247 246 243